[[{"header":{"parameterUnit":"m.s-1","parameterCategory":1,"la1":30.2991,"la2":30.254,"lo1":-89.0895,"lo2":-89.0444,"dx":0.0017,"dy":0.0017,"nx":28,"ny":28,"refTime":"2022-12-24T09:00:00:Z","depth":0,"parameterNumber":2,"parameterNumberName":"U-component_of_WINDS"},"data":[0,0,0,0,0,0,0,0,0,0,0,0,0,0,0,0,0,0,0,0,0,0,0,0,0,0,0,0,0,0,0,0,0,0,0,0,0,0,0,0,0,0,0,0,0,0,0,0,0,0,0,0,0,0,0,0,0,0,1.2319,1.2318,0,1.2304,1.2304,1.2304,1.2296,1.2296,1.2296,1.2296,1.2278,1.2278,1.2277,0,0,0,0,0,0,0,0,0,0,0,0,0,1.2339,1.2338,1.2319,1.2318,1.2318,1.2304,1.2304,1.2304,1.2296,1.2296,1.2296,1.2296,1.2278,1.2278,1.2277,0,0,0,0,0,0,0,0,0,0,0,0,0,1.2327,1.2338,1.2319,1.2313,1.2312,1.2304,1.2304,1.2303,1.2296,1.2296,1.2296,1.2296,1.2278,1.2278,1.2277,1.2273,0,0,1.2275,1.2275,0,0,0,0,0,0,0,0,1.2328,1.2327,1.2314,1.2313,1.2312,1.2302,1.2304,1.2293,1.2296,1.2302,1.2296,1.2296,1.2286,1.2285,1.2282,1.2272,1.2271,1.2275,1.2274,1.2274,1.2274,0,0,0,0,0,0,0,1.2329,1.2327,1.2313,1.2314,1.2313,1.231,1.2309,1.2302,1.2294,1.2301,1.2301,1.2299,1.2285,1.2282,1.2281,1.2271,1.2275,1.2274,1.2274,1.2274,1.2259,1.2259,0,0,0,0,0,0,1.2331,1.2328,1.2313,1.2312,1.232,1.231,1.2308,1.2305,1.2294,1.2292,1.2299,1.2299,1.2284,1.2282,1.2281,1.2276,1.2274,1.2274,1.2273,1.2259,1.2259,1.2259,0,0,0,0,0,0,1.2331,1.233,1.2314,1.232,1.2318,1.231,1.2306,1.2305,1.2302,1.2293,1.2291,1.2298,1.2284,1.2282,1.2275,1.2275,1.2273,1.2273,1.2259,1.2259,1.2259,1.2265,0,0,0,0,0,0,1.2332,1.233,1.2328,1.232,1.2318,1.2309,1.2306,1.2305,1.2301,1.23,1.2291,1.2289,1.2283,1.2277,1.2275,1.2274,1.2272,1.2259,1.2259,1.2259,1.2265,1.2265,1.2266,0,0,0,0,0,1.2333,1.233,1.2328,1.2326,1.2315,1.2309,1.2307,1.2302,1.2301,1.2299,1.2294,1.2289,1.2276,1.2276,1.2274,1.2273,1.2259,1.2259,1.2259,1.2265,1.2265,1.2266,0,0,0,0,0,0,1.2336,1.2328,1.2327,1.2321,1.2316,1.2308,1.2305,1.2302,1.2297,1.2296,1.2289,1.2287,1.2281,1.2276,1.2277,1.2269,1.2267,1.2266,1.2272,1.2272,1.2273,1.2274,1.2271,0,0,0,0,0,1.2337,1.2333,1.2326,1.2322,1.2319,1.2313,1.231,1.2306,1.23,1.2298,1.2292,1.2285,1.228,1.2276,1.227,1.2265,1.2263,1.2263,1.2264,1.2264,1.2263,1.2261,1.2261,1.2259,1.2259,1.2259,0,0,1.2337,1.2332,1.233,1.2322,1.2318,1.2314,1.2311,1.2306,1.2303,1.2297,1.2291,1.2286,1.2279,1.2274,1.2271,1.2269,1.2264,1.2264,1.2265,1.2264,1.2261,1.2261,1.2262,1.2259,1.2259,1.2259,0,0,1.2335,1.2331,1.2328,1.2324,1.2318,1.2315,1.2314,1.2307,1.2304,1.2298,1.2294,1.229,1.228,1.2275,1.2272,1.2271,1.2267,1.227,1.2271,1.2269,1.2269,1.2269,1.2269,1.2269,1.2269,1.2269,1.2269,0,1.2336,1.233,1.2326,1.2322,1.2319,1.2315,1.2312,1.2308,1.23,1.2298,1.2297,1.2286,1.2281,1.2275,1.2275,1.2272,1.2271,1.227,1.227,1.227,1.227,1.227,1.227,1.227,1.227,1.2269,1.2269,0,1.2331,1.2328,1.2325,1.232,1.2316,1.2313,1.2308,1.2305,1.2303,1.2299,1.2294,1.2288,1.2282,1.228,1.2277,1.2274,1.2273,1.2271,1.2269,1.2271,1.227,1.227,1.227,1.227,1.227,1.227,0,0,1.2329,1.2323,1.2323,1.232,1.2315,1.2311,1.2308,1.2303,1.2301,1.2297,1.2293,1.2287,1.2285,1.2281,1.2278,1.2276,1.2276,1.2274,1.2274,1.2275,1.2273,1.2275,1.2275,1.2275,1.2275,1.2274,1.2274,0,1.2327,1.2321,1.2318,1.2313,1.231,1.2308,1.2305,1.2301,1.2298,1.2295,1.2291,1.2287,1.2285,1.2283,1.2281,1.2277,1.2276,1.2277,1.2271,1.2271,1.2272,1.2274,1.2275,1.2275,1.2274,1.2274,1.2274,0,1.2322,1.2319,1.2314,1.2311,1.2309,1.2307,1.2303,1.23,1.2296,1.2294,1.2291,1.2288,1.2284,1.2283,1.2278,1.2279,1.2277,1.2275,1.2275,1.2273,1.2272,1.2272,1.2274,1.2274,1.2274,1.2274,1.2274,0,1.2321,1.2316,1.2313,1.2311,1.2306,1.2305,1.2303,1.2299,1.2297,1.2294,1.2292,1.2288,1.2285,1.2282,1.2279,1.2278,1.2274,1.2273,1.2272,1.2272,1.227,1.227,1.2272,1.227,1.227,1.227,1.227,0,1.2317,1.2315,1.2312,1.231,1.2307,1.2305,1.2302,1.23,1.2297,1.2294,1.2292,1.2289,1.2285,1.2282,1.2279,1.2276,1.2275,1.2273,1.2272,1.2273,1.2273,1.227,1.227,1.227,1.227,1.227,1.227,0,1.2315,1.2313,1.231,1.2307,1.2306,1.2304,1.2301,1.2299,1.2298,1.2294,1.2294,1.229,1.2287,1.2283,1.2278,1.2276,1.2273,1.2272,1.2275,1.2274,1.2274,1.2273,1.2272,1.2272,1.2272,1.2272,1.2272,0,1.2312,1.231,1.2308,1.2307,1.2305,1.2303,1.2301,1.2299,1.2298,1.2294,1.2293,1.229,1.2287,1.2282,1.2279,1.2275,1.2274,1.2274,1.2273,1.2274,1.2273,1.2273,1.2273,1.2274,1.2274,1.2274,1.2274,0,1.2308,1.2308,1.2306,1.2304,1.2302,1.2301,1.2299,1.2298,1.2296,1.2294,1.2291,1.2289,1.2286,1.2282,1.2279,1.2277,1.2275,1.2274,1.2274,1.2274,1.2275,1.2274,1.2275,1.2274,1.2274,1.2274,1.2274,1.2274,1.2305,1.2304,1.2302,1.23,1.2299,1.2298,1.2297,1.2295,1.2293,1.2291,1.229,1.2287,1.2285,1.2281,1.2279,1.2277,1.2276,1.2275,1.2275,1.2275,1.2275,1.2277,1.2276,1.2276,1.2276,1.2276,1.2276,0,1.23,1.23,1.2298,1.2297,1.2296,1.2296,1.2294,1.2293,1.2291,1.229,1.2288,1.2285,1.2283,1.2281,1.2278,1.2277,1.2276,1.2276,1.2276,1.2276,1.2276,1.2276,1.2277,1.2277,1.2277,1.2277,1.2277,1.2277,1.2298,1.2295,1.2296,1.2293,1.2293,1.2291,1.229,1.2289,1.2288,1.2286,1.2285,1.2284,1.2282,1.228,1.2278,1.2277,1.2276,1.2277,1.2276,1.2275,1.2275,1.2275,1.2276,1.2277,1.2277,1.2276,1.2276,1.2276]},{"header":{"parameterUnit":"m.s-1","parameterCategory":1,"la1":30.2991,"la2":30.254,"lo1":-89.0895,"lo2":-89.0444,"dx":0.0017,"dy":0.0017,"nx":28,"ny":28,"refTime":"2022-12-24T09:00:00:Z","depth":0,"parameterNumber":3,"parameterNumberName":"V-component_of_WINDS"},"data":[0,0,0,0,0,0,0,0,0,0,0,0,0,0,0,0,0,0,0,0,0,0,0,0,0,0,0,0,0,0,0,0,0,0,0,0,0,0,0,0,0,0,0,0,0,0,0,0,0,0,0,0,0,0,0,0,0,0,-7.0651,-7.0653,0,-7.0839,-7.0842,-7.0844,-7.077,-7.0766,-7.0761,-7.0757,-7.0946,-7.0955,-7.0964,0,0,0,0,0,0,0,0,0,0,0,0,0,-7.0221,-7.0229,-7.065,-7.0653,-7.0655,-7.0839,-7.0842,-7.0844,-7.0771,-7.0766,-7.076,-7.0755,-7.0943,-7.0954,-7.0965,0,0,0,0,0,0,0,0,0,0,0,0,0,-7.0408,-7.0232,-7.065,-7.0641,-7.0642,-7.0839,-7.0842,-7.0845,-7.0772,-7.0765,-7.0759,-7.0753,-7.094,-7.0953,-7.0966,-7.1182,0,0,-7.1008,-7.1014,0,0,0,0,0,0,0,0,-7.0398,-7.0424,-7.064,-7.0642,-7.0643,-7.0775,-7.0759,-7.0958,-7.0774,-7.0722,-7.0757,-7.0749,-7.0894,-7.0911,-7.0961,-7.1191,-7.1199,-7.1009,-7.1018,-7.1024,-7.1027,0,0,0,0,0,0,0,-7.0385,-7.0416,-7.0725,-7.0643,-7.0645,-7.0625,-7.0645,-7.0797,-7.0843,-7.0726,-7.0722,-7.0745,-7.0894,-7.0948,-7.0965,-7.1202,-7.1009,-7.1021,-7.103,-7.1035,-7.1616,-7.1623,0,0,0,0,0,0,-7.0372,-7.0405,-7.0719,-7.0731,-7.0502,-7.0639,-7.066,-7.0739,-7.0841,-7.085,-7.0751,-7.0741,-7.0928,-7.0949,-7.0971,-7.1229,-7.1023,-7.1036,-7.1044,-7.1609,-7.1618,-7.1626,0,0,0,0,0,0,-7.0363,-7.0401,-7.0711,-7.0567,-7.0605,-7.0653,-7.0742,-7.0746,-7.08,-7.0859,-7.0866,-7.0798,-7.0923,-7.0952,-7.113,-7.1235,-7.1042,-7.1055,-7.1601,-7.1612,-7.1622,-7.1748,0,0,0,0,0,0,-7.0351,-7.0398,-7.0482,-7.0569,-7.0613,-7.0869,-7.0748,-7.0755,-7.0825,-7.0814,-7.0905,-7.0914,-7.092,-7.111,-7.1144,-7.125,-7.1066,-7.1591,-7.1606,-7.1619,-7.1735,-7.1762,-7.1786,0,0,0,0,0,-7.0336,-7.0509,-7.0486,-7.0525,-7.0719,-7.0876,-7.09,-7.0905,-7.0833,-7.0917,-7.0955,-7.0911,-7.1218,-7.1129,-7.1166,-7.1278,-7.1585,-7.1602,-7.1617,-7.1724,-7.1757,-7.1785,0,0,0,0,0,0,-7.0432,-7.0521,-7.0496,-7.0703,-7.0783,-7.0863,-7.0969,-7.0941,-7.1041,-7.1026,-7.1027,-7.1048,-7.1232,-7.1273,-7.1172,-7.1492,-7.139,-7.1415,-7.1458,-7.149,-7.1515,-7.1501,-7.1077,0,0,0,0,0,-7.0477,-7.0598,-7.0669,-7.0844,-7.0886,-7.0921,-7.0989,-7.0986,-7.1068,-7.11,-7.1151,-7.123,-7.1344,-7.142,-7.1528,-7.174,-7.1758,-7.1836,-7.1861,-7.1881,-7.1902,-7.2016,-7.2051,-7.1679,-7.1679,-7.1679,0,0,-7.0572,-7.0635,-7.0711,-7.0865,-7.0926,-7.105,-7.0949,-7.1085,-7.1176,-7.112,-7.1292,-7.1332,-7.142,-7.1617,-7.1705,-7.1656,-7.2009,-7.1902,-7.1918,-7.1928,-7.2037,-7.2072,-7.2103,-7.1691,-7.1688,-7.1687,0,0,-7.0807,-7.0868,-7.1021,-7.1084,-7.1178,-7.12,-7.1237,-7.1322,-7.1347,-7.1519,-7.1479,-7.1587,-7.1784,-7.1848,-7.1907,-7.2166,-7.2129,-7.2201,-7.2333,-7.2444,-7.2473,-7.2499,-7.259,-7.2623,-7.2222,-7.2222,-7.2222,0,-7.0913,-7.1099,-7.1102,-7.1242,-7.131,-7.1266,-7.1419,-7.148,-7.1604,-7.1652,-7.1595,-7.1841,-7.1897,-7.2107,-7.217,-7.222,-7.226,-7.2191,-7.2469,-7.2495,-7.2519,-7.2606,-7.2641,-7.223,-7.2229,-7.2229,-7.2228,0,-7.1224,-7.1354,-7.1465,-7.1588,-7.1668,-7.1814,-7.1837,-7.1918,-7.1908,-7.1935,-7.211,-7.2177,-7.2297,-7.2347,-7.2338,-7.2555,-7.2522,-7.2468,-7.2366,-7.2563,-7.2644,-7.2678,-7.2242,-7.2239,-7.2237,-7.2235,0,0,-7.1525,-7.1647,-7.1688,-7.1743,-7.1843,-7.1942,-7.2085,-7.2204,-7.2273,-7.236,-7.2478,-7.2646,-7.2596,-7.2662,-7.266,-7.2757,-7.2957,-7.2691,-7.2693,-7.2737,-7.3199,-7.3239,-7.3278,-7.2933,-7.294,-7.2945,-7.3191,0,-7.1768,-7.2021,-7.2027,-7.2257,-7.2376,-7.2336,-7.246,-7.2534,-7.2563,-7.2667,-7.2697,-7.2816,-7.2742,-7.2781,-7.2876,-7.2913,-7.3049,-7.2895,-7.3042,-7.3047,-7.3021,-7.3321,-7.3364,-7.3594,-7.3223,-7.3229,-7.3233,0,-7.2086,-7.2184,-7.2426,-7.2508,-7.2559,-7.267,-7.2779,-7.288,-7.2962,-7.2976,-7.305,-7.3033,-7.3176,-7.307,-7.3267,-7.3162,-7.3222,-7.3248,-7.3257,-7.3271,-7.3152,-7.3342,-7.3667,-7.3702,-7.3283,-7.3279,-7.3276,0,-7.2281,-7.2473,-7.2643,-7.2691,-7.2791,-7.287,-7.2915,-7.2991,-7.3062,-7.3156,-7.3202,-7.3311,-7.3371,-7.3456,-7.3467,-7.3389,-7.3665,-7.356,-7.3679,-7.3679,-7.3739,-7.3735,-7.4078,-7.3779,-7.3778,-7.3778,-7.3777,0,-7.2551,-7.2701,-7.2732,-7.2836,-7.3002,-7.3007,-7.317,-7.3208,-7.3276,-7.3386,-7.3357,-7.346,-7.347,-7.3576,-7.3586,-7.3746,-7.3774,-7.3788,-7.3788,-7.379,-7.3788,-7.3829,-7.3813,-7.3787,-7.3785,-7.3783,-7.3781,0,-7.2797,-7.2824,-7.3006,-7.3086,-7.3109,-7.3228,-7.3295,-7.3394,-7.3419,-7.3559,-7.3591,-7.3632,-7.3754,-7.3775,-7.3919,-7.3925,-7.4118,-7.4102,-7.4091,-7.4088,-7.4206,-7.4194,-7.4587,-7.4638,-7.4306,-7.431,-7.4312,0,-7.2968,-7.3082,-7.3174,-7.3246,-7.3296,-7.3412,-7.3484,-7.3493,-7.3569,-7.367,-7.3757,-7.3877,-7.3973,-7.4171,-7.4212,-7.4321,-7.4308,-7.4438,-7.4324,-7.4322,-7.4309,-7.4302,-7.4313,-7.446,-7.4463,-7.4466,-7.4469,0,-7.3268,-7.3275,-7.3381,-7.3492,-7.3579,-7.3667,-7.3749,-7.3809,-7.3828,-7.3915,-7.4041,-7.4116,-7.4263,-7.4382,-7.4491,-7.4535,-7.4505,-7.4504,-7.4537,-7.454,-7.4529,-7.4536,-7.415,-7.4495,-7.4493,-7.4491,-7.4489,-7.4488,-7.3481,-7.358,-7.366,-7.3779,-7.3842,-7.3919,-7.4016,-7.4054,-7.416,-7.4281,-7.4279,-7.4417,-7.4494,-7.4638,-7.4689,-7.4796,-7.4753,-7.4802,-7.4814,-7.4826,-7.4837,-7.4512,-7.4815,-7.4815,-7.4814,-7.4813,-7.4813,0,-7.3778,-7.3828,-7.3937,-7.4054,-7.4147,-7.4112,-7.4201,-7.428,-7.4402,-7.4478,-7.4574,-7.4717,-7.4832,-7.4882,-7.4995,-7.507,-7.5059,-7.5099,-7.5094,-7.5104,-7.4868,-7.4828,-7.5106,-7.5106,-7.5106,-7.5106,-7.5106,-7.5106,-7.3944,-7.411,-7.4127,-7.4323,-7.437,-7.4507,-7.456,-7.4631,-7.4691,-7.4854,-7.495,-7.4982,-7.5046,-7.5163,-7.5266,-7.5278,-7.532,-7.5367,-7.5372,-7.5151,-7.5121,-7.5092,-7.5054,-7.5376,-7.5376,-7.5598,-7.56,-7.5602]}]]